Home   Weather   Winterthur   Past weeks

Flag for Switzerland Past Weather in Winterthur, Switzerland — Yesterday and Last 2 Weeks

55 °F

Partly sunny.

Feels Like: 53 °F
Forecast: 43 / 55 °F
Wind: 8 mph from Northwest

Location: Zurich-Kloten

Current Time: Oct 24, 2016 at 2:39:23 PM

Latest Report: Oct 24, 2016 at 2:20 PM

Visibility: N/A

Pressure: 29.95 "Hg

Humidity: 82%

Dew Point: 50 °F

Location of WinterthurLocation

Past Weather in Winterthur — Graph


Winterthur Temperature Yesterday

Maximum temperature yesterday: 46 °F (at 2:20 PM)
Minimum temperature yesterday: 32 °F (at 12:20 AM)
Average temperature yesterday: 42 °F

High & Low Weather Summary for the Past Weeks

High61 °F (Oct 15, 3:50 PM)100% (Oct 9, 10:20 PM)30.27 "Hg (Oct 9, 10:20 PM)
Low32 °F (Oct 13, 2:50 AM)54% (Oct 12, 3:50 PM)29.62 "Hg (Oct 14, 5:50 PM)
Average46 °F87%30.04 "Hg
* Reported Oct 9 1:20 PM — Oct 24 1:20 PM, Winterthur, Weather by CustomWeather, © 2016

Note: Actual official high and low records may vary slightly from our data, if they occured in-between our weather recording intervals... More about our weather records


Winterthur Weather History for the Previous 24 Hours

Scroll right to see more
Time TempWeatherWind HumidityBarometerVisibility
1:20 PM
Mon, Oct 24
54 °FPartly sunny.6 mph94%29.95 "Hg6 mi
12:50 PM52 °FBroken clouds.2 mph94%29.98 "Hg4 mi
12:20 PM50 °FFog.3 mph94%29.98 "Hg3 mi
11:50 AM48 °FFog.5 mph100%29.98 "Hg2 mi
11:20 AM46 °FFog.5 mph100%29.98 "Hg2 mi
10:50 AM46 °FFog.2 mph93%29.98 "Hg1 mi
10:20 AM45 °FFog.2 mph100%29.98 "Hg0 mi
9:50 AM45 °FFog.2 mph100%29.98 "Hg0 mi
9:20 AM45 °FFog.3 mph100%29.98 "Hg0 mi
8:50 AM45 °FFog.2 mph93%29.98 "Hg0 mi
8:20 AM45 °FFog.1 mph93%29.95 "Hg0 mi
7:50 AM43 °FFog.2 mph100%29.95 "Hg0 mi
7:20 AM43 °FDense fog.3 mph100%29.95 "Hg0 mi
6:50 AM41 °FQuite cool.2 mph100%29.95 "Hg1 mi
6:20 AM43 °FQuite cool.2 mph100%29.95 "Hg1 mi
5:50 AM45 °FQuite cool.2 mph100%29.92 "Hg1 mi
5:20 AM45 °FFog.3 mph100%29.95 "Hg2 mi
4:50 AM46 °FFog.1 mph93%29.95 "Hg2 mi
4:20 AM46 °FFog.3 mph93%29.95 "Hg2 mi
3:50 AM46 °FFog.5 mph100%29.95 "Hg2 mi
3:20 AM46 °FFog.2 mph100%29.95 "Hg2 mi
2:50 AM46 °FFog.2 mph93%29.95 "Hg2 mi
1:50 AM46 °FFog.5 mph93%29.95 "Hg2 mi
1:20 AM46 °FFog.3 mph93%29.95 "Hg2 mi
12:50 AM46 °FFog.2 mph93%29.95 "Hg2 mi
12:20 AM46 °FFog.2 mph93%29.95 "Hg2 mi
11:50 PM
Sun, Oct 23
45 °FFog.1 mph100%29.95 "Hg2 mi
11:20 PM45 °FSprinkles. Partly cloudy.1 mph100%29.92 "Hg2 mi
10:50 PM45 °FPartly cloudy.1 mph100%29.92 "Hg2 mi
10:20 PM45 °FSprinkles. Partly cloudy.3 mph100%29.92 "Hg2 mi
9:50 PM45 °FFog.3 mph100%29.92 "Hg2 mi
9:20 PM45 °FFog.2 mph100%29.92 "Hg2 mi
8:50 PM45 °FFog.No wind100%29.92 "Hg2 mi
8:20 PM45 °FRain showers. Partly cloudy.2 mph100%29.92 "Hg2 mi
7:50 PM45 °FSprinkles. Partly cloudy.2 mph100%29.92 "Hg2 mi
7:20 PM45 °FRain showers. Partly cloudy.2 mph100%29.89 "Hg2 mi
6:50 PM45 °FRain showers. Partly cloudy.3 mph93%29.89 "Hg2 mi
6:20 PM45 °FRain showers. Fog.5 mph93%29.89 "Hg2 mi
5:50 PM45 °FSprinkles. Fog.6 mph100%29.89 "Hg2 mi
5:20 PM46 °FRain showers. Fog.6 mph93%29.89 "Hg2 mi
4:50 PM46 °FRain showers. Fog.3 mph93%29.89 "Hg2 mi
4:20 PM46 °FRain showers. Partly sunny.2 mph87%29.89 "Hg3 mi
3:50 PM46 °FSprinkles. Partly sunny.2 mph87%29.86 "Hg4 mi
3:20 PM46 °FSprinkles. Partly sunny.3 mph87%29.86 "Hg4 mi
2:50 PM46 °FScattered showers. Partly sunny.2 mph87%29.86 "Hg4 mi
2:20 PM46 °FScattered showers. Partly sunny.3 mph87%29.89 "Hg4 mi
Weather by CustomWeather, © 2016

See weather overviewHow to use our weather pages